[[{"header":{"parameterUnit":"m.s-1","parameterCategory":1,"la1":30.2991,"la2":30.254,"lo1":-89.0895,"lo2":-89.0444,"dy":0.0017,"dx":0.0017,"nx":28,"ny":28,"refTime":"2024-02-21T09:00:00:Z","depth":0,"parameterNumber":2,"parameterNumberName":"U-component_of_WINDS"},"data":[0,0,0,0,0,0,0,0,0,0,0,0,0,0,0,0,0,0,0,0,0,0,0,0,0,0,0,0,0,0,0,0,0,0,0,0,0,0,0,0,0,0,0,0,0,0,0,0,0,0,0,0,0,0,0,0,0,0,-0.9984,-0.9984,0,-0.9958,-0.9958,-0.9957,-0.9934,-0.9934,-0.9934,-0.9933,-0.9907,-0.9906,-0.9906,0,0,0,0,0,0,0,0,0,0,0,0,0,-1.0016,-1.0016,-0.9984,-0.9984,-0.9984,-0.9958,-0.9958,-0.9957,-0.9934,-0.9934,-0.9934,-0.9933,-0.9907,-0.9906,-0.9906,0,0,0,0,0,0,0,0,0,0,0,0,0,-0.9997,-1.0015,-0.9985,-0.9969,-0.9968,-0.9958,-0.9958,-0.9957,-0.9934,-0.9934,-0.9934,-0.9933,-0.9907,-0.9906,-0.9906,-0.9909,0,0,-0.9903,-0.9903,0,0,0,0,0,0,0,0,-0.9998,-0.9996,-0.9972,-0.997,-0.9968,-0.9949,-0.9959,-0.9941,-0.9934,-0.9947,-0.9933,-0.9933,-0.9921,-0.9919,-0.9915,-0.9908,-0.9907,-0.9903,-0.9903,-0.9903,-0.9902,0,0,0,0,0,0,0,-1.0,-0.9997,-0.9974,-0.9971,-0.9969,-0.9964,-0.9961,-0.9955,-0.9937,-0.9946,-0.9944,-0.9941,-0.992,-0.9916,-0.9914,-0.9906,-0.9903,-0.9903,-0.9902,-0.9902,-0.9901,-0.9902,0,0,0,0,0,0,-1.0003,-0.9998,-0.9975,-0.9973,-0.9983,-0.9964,-0.996,-0.9956,-0.9937,-0.9933,-0.9942,-0.994,-0.9917,-0.9915,-0.9913,-0.9917,-0.9903,-0.9902,-0.9902,-0.9901,-0.9902,-0.9902,0,0,0,0,0,0,-1.0004,-1.0001,-0.9976,-0.9985,-0.9982,-0.9964,-0.9959,-0.9955,-0.9951,-0.9933,-0.993,-0.9941,-0.9917,-0.9914,-0.9911,-0.9915,-0.9902,-0.9901,-0.9901,-0.9901,-0.9902,-0.9923,0,0,0,0,0,0,-1.0005,-1.0002,-1.0003,-0.9985,-0.9981,-0.9973,-0.9959,-0.9955,-0.995,-0.9948,-0.9932,-0.9929,-0.9916,-0.9912,-0.991,-0.9914,-0.9901,-0.99,-0.9901,-0.9902,-0.9922,-0.9924,-0.9926,0,0,0,0,0,-1.0006,-1.001,-1.0003,-1.0,-0.9982,-0.9974,-0.9971,-0.9957,-0.995,-0.9951,-0.994,-0.9929,-0.9915,-0.9912,-0.9909,-0.9913,-0.99,-0.9901,-0.9902,-0.9921,-0.9924,-0.9926,0,0,0,0,0,0,-1.0028,-1.0007,-0.9999,-0.9997,-0.9988,-0.997,-0.9971,-0.9961,-0.9953,-0.9951,-0.9934,-0.993,-0.9929,-0.9921,-0.9917,-0.9916,-0.9906,-0.9906,-0.9921,-0.9924,-0.9926,-0.9928,-0.99,0,0,0,0,0,-1.0033,-1.0027,-1.001,-1.001,-1.0005,-0.9989,-0.9985,-0.9975,-0.9964,-0.9959,-0.9948,-0.9938,-0.9931,-0.9927,-0.992,-0.9921,-0.9917,-0.9922,-0.9925,-0.9927,-0.9927,-0.9927,-0.993,-0.9905,-0.9905,-0.9905,0,0,-1.0042,-1.003,-1.0028,-1.0014,-1.0005,-1.0,-0.9985,-0.9981,-0.9977,-0.9959,-0.9955,-0.9946,-0.9934,-0.9932,-0.9931,-0.9925,-0.9933,-0.9928,-0.993,-0.9929,-0.9929,-0.9931,-0.9933,-0.9906,-0.9906,-0.9905,0,0,-1.0057,-1.0047,-1.0046,-1.0038,-1.0025,-1.0014,-1.0014,-0.9998,-0.9991,-0.9987,-0.9973,-0.9968,-0.9957,-0.9949,-0.9944,-0.9956,-0.9946,-0.9954,-0.9966,-0.9967,-0.9969,-0.997,-0.9975,-0.9977,-0.9955,-0.9955,-0.9955,0,-1.0071,-1.0063,-1.0047,-1.0044,-1.0038,-1.0021,-1.002,-1.0013,-0.9998,-0.9995,-0.9989,-0.9975,-0.9965,-0.9962,-0.9965,-0.9961,-0.9961,-0.9956,-0.9969,-0.9971,-0.9972,-0.9977,-0.9978,-0.9956,-0.9956,-0.9956,-0.9956,0,-1.008,-1.0075,-1.0076,-1.0062,-1.0056,-1.0054,-1.0039,-1.0035,-1.0026,-1.0016,-1.0012,-1.0,-0.999,-0.9989,-0.9979,-0.9984,-0.9981,-0.9973,-0.9962,-0.9976,-0.998,-0.9981,-0.9958,-0.9957,-0.9957,-0.9957,0,0,-1.0108,-1.0086,-1.0086,-1.008,-1.0064,-1.006,-1.0058,-1.0048,-1.0046,-1.0036,-1.0034,-1.0025,-1.0017,-1.0011,-1.0,-1.0001,-1.0012,-0.9992,-0.9991,-0.9996,-1.0017,-1.0024,-1.0026,-1.0005,-1.0005,-1.0005,-1.0018,0,-1.0121,-1.0115,-1.0101,-1.0099,-1.0094,-1.0078,-1.0076,-1.0066,-1.0057,-1.0052,-1.0042,-1.0036,-1.0026,-1.0022,-1.0021,-1.0011,-1.0016,-1.0009,-1.0003,-1.0003,-1.0006,-1.0028,-1.0035,-1.0047,-1.0019,-1.0019,-1.002,0,-1.0135,-1.0126,-1.0124,-1.0109,-1.0106,-1.0104,-1.0095,-1.009,-1.0079,-1.0072,-1.0066,-1.0054,-1.0051,-1.0041,-1.0037,-1.0033,-1.0029,-1.0024,-1.0024,-1.0023,-1.0012,-1.0027,-1.0051,-1.0053,-1.0022,-1.0022,-1.0021,0,-1.0156,-1.0144,-1.0141,-1.0136,-1.0118,-1.0117,-1.011,-1.0098,-1.0094,-1.0085,-1.0082,-1.0074,-1.0069,-1.0063,-1.005,-1.0044,-1.0047,-1.0036,-1.0042,-1.0042,-1.0043,-1.0043,-1.0066,-1.0041,-1.004,-1.004,-1.004,0,-1.0172,-1.0171,-1.015,-1.0149,-1.0148,-1.0132,-1.0132,-1.0123,-1.0113,-1.0109,-1.0095,-1.0092,-1.0075,-1.007,-1.006,-1.0058,-1.0056,-1.005,-1.0047,-1.0052,-1.0052,-1.0049,-1.0048,-1.0041,-1.0041,-1.0041,-1.0041,0,-1.0195,-1.0181,-1.0177,-1.0161,-1.0156,-1.0157,-1.0142,-1.0141,-1.013,-1.0126,-1.0124,-1.0109,-1.0102,-1.0089,-1.0079,-1.0072,-1.0072,-1.0067,-1.0076,-1.0074,-1.0081,-1.0081,-1.0103,-1.0105,-1.0078,-1.0078,-1.0078,0,-1.0206,-1.0206,-1.0189,-1.0185,-1.0179,-1.0173,-1.0168,-1.0153,-1.0149,-1.0136,-1.0136,-1.0128,-1.0121,-1.0112,-1.01,-1.0092,-1.0087,-1.0096,-1.0086,-1.009,-1.0088,-1.0088,-1.0088,-1.0098,-1.0098,-1.0099,-1.0099,0,-1.0228,-1.0221,-1.0214,-1.0205,-1.02,-1.0192,-1.0184,-1.0182,-1.0165,-1.016,-1.0154,-1.0149,-1.0138,-1.0131,-1.0122,-1.0115,-1.0104,-1.0102,-1.0103,-1.0107,-1.0113,-1.011,-1.0082,-1.0102,-1.0101,-1.0101,-1.0101,-1.0101,-1.0246,-1.0245,-1.0233,-1.0226,-1.0218,-1.021,-1.0208,-1.0197,-1.0191,-1.0182,-1.0173,-1.0167,-1.0156,-1.0142,-1.0136,-1.0131,-1.0126,-1.0127,-1.0128,-1.0128,-1.013,-1.0113,-1.013,-1.0129,-1.0129,-1.0129,-1.0129,0,-1.0267,-1.0259,-1.0253,-1.0241,-1.0236,-1.0226,-1.0216,-1.0212,-1.0208,-1.0198,-1.0192,-1.0184,-1.0177,-1.0165,-1.0157,-1.0156,-1.0151,-1.0154,-1.0154,-1.0153,-1.0135,-1.0135,-1.0158,-1.0158,-1.0158,-1.0158,-1.0158,-1.0158,-1.0278,-1.0275,-1.0267,-1.026,-1.0252,-1.0246,-1.0241,-1.0234,-1.0226,-1.0219,-1.0213,-1.0204,-1.0194,-1.0185,-1.0178,-1.0175,-1.0173,-1.0178,-1.0173,-1.0157,-1.0154,-1.0151,-1.0152,-1.0177,-1.0177,-1.0191,-1.0191,-1.0191]},{"header":{"parameterUnit":"m.s-1","parameterCategory":1,"la1":30.2991,"la2":30.254,"lo1":-89.0895,"lo2":-89.0444,"dy":0.0017,"dx":0.0017,"nx":28,"ny":28,"refTime":"2024-02-21T09:00:00:Z","depth":0,"parameterNumber":3,"parameterNumberName":"V-component_of_WINDS"},"data":[0,0,0,0,0,0,0,0,0,0,0,0,0,0,0,0,0,0,0,0,0,0,0,0,0,0,0,0,0,0,0,0,0,0,0,0,0,0,0,0,0,0,0,0,0,0,0,0,0,0,0,0,0,0,0,0,0,0,2.6833,2.6833,0,2.6812,2.6811,2.6811,2.679,2.679,2.679,2.6789,2.6765,2.6765,2.6765,0,0,0,0,0,0,0,0,0,0,0,0,0,2.6853,2.6853,2.6833,2.6833,2.6832,2.6812,2.6811,2.6811,2.679,2.679,2.679,2.6789,2.6765,2.6765,2.6764,0,0,0,0,0,0,0,0,0,0,0,0,0,2.6839,2.6853,2.6833,2.6819,2.6818,2.6812,2.6811,2.6811,2.679,2.679,2.679,2.6789,2.6766,2.6765,2.6764,2.6769,0,0,2.6763,2.6762,0,0,0,0,0,0,0,0,2.684,2.6838,2.6822,2.682,2.6819,2.6803,2.681,2.6797,2.679,2.6801,2.6789,2.6789,2.6778,2.6776,2.6773,2.6768,2.6767,2.6763,2.6762,2.6762,2.6762,0,0,0,0,0,0,0,2.6841,2.6839,2.6824,2.6821,2.682,2.6814,2.6811,2.6807,2.6792,2.68,2.6798,2.6796,2.6777,2.6774,2.6773,2.6766,2.6763,2.6762,2.6762,2.6762,2.6764,2.6765,0,0,0,0,0,0,2.6844,2.684,2.6825,2.6824,2.6829,2.6814,2.6811,2.6809,2.6792,2.6789,2.6797,2.6795,2.6775,2.6773,2.6772,2.6776,2.6762,2.6761,2.6761,2.6764,2.6764,2.6765,0,0,0,0,0,0,2.6845,2.6843,2.6826,2.6832,2.6829,2.6814,2.6811,2.6808,2.6805,2.6789,2.6786,2.6796,2.6775,2.6772,2.677,2.6775,2.6761,2.6761,2.6763,2.6764,2.6765,2.6786,0,0,0,0,0,0,2.6845,2.6843,2.6845,2.6832,2.6829,2.6825,2.6812,2.6808,2.6804,2.6803,2.6788,2.6785,2.6774,2.6771,2.677,2.6774,2.676,2.6763,2.6764,2.6764,2.6784,2.6787,2.6789,0,0,0,0,0,2.6846,2.6852,2.6846,2.6844,2.6831,2.6826,2.6824,2.6812,2.6805,2.6807,2.6797,2.6786,2.6775,2.6771,2.6769,2.6774,2.6762,2.6763,2.6764,2.6783,2.6786,2.6789,0,0,0,0,0,0,2.6865,2.685,2.6843,2.6844,2.6837,2.6822,2.6824,2.6815,2.6809,2.6807,2.6791,2.6788,2.6788,2.678,2.6776,2.6777,2.6767,2.6768,2.6782,2.6785,2.6787,2.6789,2.676,0,0,0,0,0,2.687,2.6868,2.6854,2.6856,2.6853,2.6839,2.6836,2.6828,2.6819,2.6815,2.6805,2.6796,2.6791,2.6787,2.6781,2.6783,2.678,2.6785,2.6788,2.679,2.679,2.6791,2.6793,2.6768,2.6768,2.6768,0,0,2.6879,2.687,2.6869,2.686,2.6853,2.685,2.6836,2.6834,2.6832,2.6814,2.6812,2.6804,2.6793,2.6793,2.6793,2.6787,2.6797,2.6791,2.6793,2.6792,2.6792,2.6795,2.6797,2.6769,2.6768,2.6768,0,0,2.6894,2.6887,2.6889,2.6882,2.6872,2.6864,2.6864,2.6851,2.6846,2.6843,2.683,2.6827,2.6818,2.6811,2.6806,2.6819,2.6809,2.6818,2.683,2.6831,2.6833,2.6835,2.684,2.6842,2.6819,2.6819,2.6819,0,2.6906,2.6903,2.689,2.6889,2.6885,2.687,2.6872,2.6866,2.6854,2.6852,2.6846,2.6835,2.6826,2.6824,2.6828,2.6824,2.6824,2.6819,2.6834,2.6835,2.6837,2.6841,2.6843,2.682,2.682,2.6819,2.6819,0,2.6918,2.6916,2.6918,2.6909,2.6905,2.6905,2.6892,2.689,2.6882,2.6873,2.6871,2.686,2.6852,2.6851,2.6842,2.6848,2.6845,2.6837,2.6826,2.684,2.6845,2.6846,2.6821,2.6821,2.6821,2.682,0,0,2.6945,2.6929,2.693,2.6926,2.6914,2.6912,2.6911,2.6904,2.6903,2.6895,2.6894,2.6887,2.6879,2.6874,2.6864,2.6865,2.6877,2.6856,2.6856,2.6861,2.6883,2.689,2.6892,2.687,2.687,2.6871,2.6884,0,2.6958,2.6957,2.6946,2.6948,2.6946,2.6932,2.6931,2.6923,2.6916,2.6912,2.6903,2.6898,2.6888,2.6885,2.6885,2.6875,2.6881,2.6874,2.6869,2.6869,2.6872,2.6894,2.6901,2.6914,2.6885,2.6886,2.6886,0,2.6974,2.6969,2.6971,2.6959,2.6958,2.6958,2.6951,2.6948,2.6939,2.6933,2.6927,2.6917,2.6915,2.6905,2.6902,2.6898,2.6895,2.689,2.689,2.6889,2.6878,2.6894,2.6918,2.692,2.6888,2.6888,2.6888,0,2.6994,2.6987,2.6987,2.6984,2.6971,2.6971,2.6965,2.6956,2.6953,2.6946,2.6944,2.6937,2.6933,2.6928,2.6916,2.691,2.6914,2.6903,2.6909,2.691,2.6911,2.6911,2.6935,2.6909,2.6909,2.6909,2.6909,0,2.701,2.7012,2.6996,2.6996,2.6998,2.6985,2.6986,2.6979,2.6971,2.697,2.6956,2.6955,2.6939,2.6935,2.6926,2.6925,2.6923,2.6918,2.6915,2.6919,2.692,2.6917,2.6916,2.6909,2.6909,2.6909,2.6909,0,2.7033,2.7022,2.7022,2.7009,2.7006,2.7008,2.6997,2.6997,2.6988,2.6986,2.6985,2.6971,2.6967,2.6954,2.6946,2.6939,2.6941,2.6936,2.6944,2.6943,2.695,2.6949,2.6973,2.6975,2.6947,2.6948,2.6948,0,2.7044,2.7045,2.7034,2.7032,2.7027,2.7024,2.7021,2.7008,2.7006,2.6996,2.6996,2.6991,2.6986,2.6979,2.6968,2.6961,2.6956,2.6965,2.6955,2.6959,2.6957,2.6957,2.6957,2.6967,2.6968,2.6968,2.6968,0,2.7066,2.7061,2.7057,2.7052,2.7049,2.7043,2.7038,2.7037,2.7022,2.702,2.7015,2.7011,2.7004,2.6998,2.699,2.6984,2.6974,2.6971,2.6973,2.6977,2.6982,2.6979,2.6951,2.6971,2.6971,2.697,2.697,2.697,2.7083,2.7084,2.7076,2.7072,2.7067,2.7062,2.7061,2.7052,2.7049,2.7042,2.7034,2.7031,2.7022,2.701,2.7005,2.7001,2.6996,2.6997,2.6998,2.6998,2.7,2.6982,2.7,2.7,2.6999,2.6999,2.6999,0,2.7104,2.7099,2.7095,2.7088,2.7085,2.7077,2.707,2.7068,2.7066,2.7058,2.7054,2.7049,2.7044,2.7033,2.7026,2.7026,2.7021,2.7025,2.7025,2.7023,2.7005,2.7005,2.7029,2.7029,2.7029,2.7029,2.7029,2.7029,2.7115,2.7116,2.711,2.7107,2.7101,2.7098,2.7095,2.709,2.7085,2.708,2.7076,2.7069,2.706,2.7053,2.7048,2.7045,2.7043,2.7049,2.7044,2.7027,2.7024,2.7022,2.7022,2.7048,2.7048,2.7062,2.7062,2.7062]}]]